Year,Month,Day,Hour,Minute,Value (Times are PST for windspeed in km/hr)
2010,04,03,00,00,27.60
2010,04,03,00,01,32.20
2010,04,03,00,02,32.30
2010,04,03,00,03,31.20
2010,04,03,00,04,27.40
2010,04,03,00,05,39.00
2010,04,03,00,06,25.20
2010,04,03,00,07,23.70
2010,04,03,00,08,21.60
2010,04,03,00,09,23.00
2010,04,03,00,10,19.30
2010,04,03,00,11,20.80
2010,04,03,00,12,32.50
2010,04,03,00,13,25.40
2010,04,03,00,14,25.20
2010,04,03,00,15,23.30
2010,04,03,00,16,25.10
2010,04,03,00,17,19.40
2010,04,03,00,18,38.00
2010,04,03,00,19,33.50
2010,04,03,00,20,24.80
2010,04,03,00,21,31.30
2010,04,03,00,22,29.20
2010,04,03,00,23,32.40
2010,04,03,00,24,30.90
2010,04,03,00,25,31.60
2010,04,03,00,26,35.70
2010,04,03,00,27,31.90
2010,04,03,00,28,28.70
2010,04,03,00,29,29.50
2010,04,03,00,30,26.60
2010,04,03,00,31,35.40
2010,04,03,00,32,25.60
2010,04,03,00,33,31.30
2010,04,03,00,34,30.20
2010,04,03,00,35,28.60
2010,04,03,00,36,24.60
2010,04,03,00,37,22.70
2010,04,03,00,38,27.00
2010,04,03,00,39,21.50
2010,04,03,00,40,21.80
2010,04,03,00,41,21.60
2010,04,03,00,42,18.30
2010,04,03,00,43,25.80
2010,04,03,00,44,20.80
2010,04,03,00,45,28.50
2010,04,03,00,46,29.10
2010,04,03,00,47,32.50
2010,04,03,00,48,24.30
2010,04,03,00,49,27.30
2010,04,03,00,50,32.90
2010,04,03,00,51,28.70
2010,04,03,00,52,31.80
2010,04,03,00,53,23.10
2010,04,03,00,54,29.40
2010,04,03,00,55,25.40
2010,04,03,00,56,34.20
2010,04,03,00,57,24.80
2010,04,03,00,58,32.30
2010,04,03,00,59,32.50
2010,04,03,01,00,27.10
2010,04,03,01,01,30.10
2010,04,03,01,02,29.60
2010,04,03,01,03,22.40
2010,04,03,01,04,20.20
2010,04,03,01,05,27.30
2010,04,03,01,06,26.30
2010,04,03,01,07,24.10
2010,04,03,01,08,22.20
2010,04,03,01,09,25.70
2010,04,03,01,10,28.70
2010,04,03,01,11,30.10
2010,04,03,01,12,27.40
2010,04,03,01,13,26.10
2010,04,03,01,14,34.10
2010,04,03,01,15,20.20
2010,04,03,01,16,18.60
2010,04,03,01,17,17.70
2010,04,03,01,18,13.60
2010,04,03,01,19,25.60
2010,04,03,01,20,22.60
2010,04,03,01,21,31.10
2010,04,03,01,22,24.10
2010,04,03,01,23,17.60
2010,04,03,01,24,24.10
2010,04,03,01,25,27.30
2010,04,03,01,26,30.80
2010,04,03,01,27,24.50
2010,04,03,01,28,17.40
2010,04,03,01,29,26.70
2010,04,03,01,30,23.60
2010,04,03,01,31,24.60
2010,04,03,01,32,32.30
2010,04,03,01,33,26.60
2010,04,03,01,34,23.50
2010,04,03,01,35,25.40
2010,04,03,01,36,21.00
2010,04,03,01,37,20.90
2010,04,03,01,38,29.50
2010,04,03,01,39,30.30
2010,04,03,01,40,22.10
2010,04,03,01,41,29.00
2010,04,03,01,42,26.30
2010,04,03,01,43,24.10
2010,04,03,01,44,29.60
2010,04,03,01,45,20.10
2010,04,03,01,46,26.10
2010,04,03,01,47,24.50
2010,04,03,01,48,28.60
2010,04,03,01,49,31.10
2010,04,03,01,50,30.00
2010,04,03,01,51,27.40
2010,04,03,01,52,37.00
2010,04,03,01,53,31.60
2010,04,03,01,54,24.60
2010,04,03,01,55,27.40
2010,04,03,01,56,25.80
2010,04,03,01,57,19.40
2010,04,03,01,58,17.50
2010,04,03,01,59,17.50
2010,04,03,02,00,25.20
2010,04,03,02,01,21.30
2010,04,03,02,02,22.00
2010,04,03,02,03,25.30
2010,04,03,02,04,29.00
2010,04,03,02,05,28.10
2010,04,03,02,06,19.80
2010,04,03,02,07,28.30
2010,04,03,02,08,28.60
2010,04,03,02,09,25.20
2010,04,03,02,10,29.60
2010,04,03,02,11,27.60
2010,04,03,02,12,28.00
2010,04,03,02,13,39.00
2010,04,03,02,14,31.70
2010,04,03,02,15,24.30
2010,04,03,02,16,26.70
2010,04,03,02,17,26.40
2010,04,03,02,18,26.30
2010,04,03,02,19,26.90
2010,04,03,02,20,32.60
2010,04,03,02,21,21.10
2010,04,03,02,22,23.50
2010,04,03,02,23,26.50
2010,04,03,02,24,22.60
2010,04,03,02,25,27.20
2010,04,03,02,26,31.00
2010,04,03,02,27,25.80
2010,04,03,02,28,25.20
2010,04,03,02,29,27.40
2010,04,03,02,30,31.40
2010,04,03,02,31,33.10
2010,04,03,02,32,30.40
2010,04,03,02,33,31.30
2010,04,03,02,34,28.90
2010,04,03,02,35,25.80
2010,04,03,02,36,31.30
2010,04,03,02,37,31.10
2010,04,03,02,38,29.00
2010,04,03,02,39,27.20
2010,04,03,02,40,22.40
2010,04,03,02,41,20.80
2010,04,03,02,42,21.20
2010,04,03,02,43,25.10
2010,04,03,02,44,27.40
2010,04,03,02,45,21.10
2010,04,03,02,46,25.10
2010,04,03,02,47,17.50
2010,04,03,02,48,18.50
2010,04,03,02,49,24.50
2010,04,03,02,50,20.90
2010,04,03,02,51,16.20
2010,04,03,02,52,19.60
2010,04,03,02,53,14.10
2010,04,03,02,54,21.90
2010,04,03,02,55,15.60
2010,04,03,02,56,13.60
2010,04,03,02,57,17.20
2010,04,03,02,58,18.50
2010,04,03,02,59,21.50
2010,04,03,03,00,26.30
2010,04,03,03,01,24.10
2010,04,03,03,02,32.80
2010,04,03,03,03,29.50
2010,04,03,03,04,28.50
2010,04,03,03,05,28.70
2010,04,03,03,06,38.00
2010,04,03,03,07,32.70
2010,04,03,03,08,31.30
2010,04,03,03,09,24.80
2010,04,03,03,10,33.70
2010,04,03,03,11,31.20
2010,04,03,03,12,28.40
2010,04,03,03,13,29.90
2010,04,03,03,14,34.60
2010,04,03,03,15,32.30
2010,04,03,03,16,25.20
2010,04,03,03,17,26.90
2010,04,03,03,18,27.70
2010,04,03,03,19,24.70
2010,04,03,03,20,29.20
2010,04,03,03,21,30.20
2010,04,03,03,22,30.90
2010,04,03,03,23,31.70
2010,04,03,03,24,42.00
2010,04,03,03,25,25.00
2010,04,03,03,26,23.50
2010,04,03,03,27,24.10
2010,04,03,03,28,23.10
2010,04,03,03,29,20.10
2010,04,03,03,30,18.00
2010,04,03,03,31,15.80
2010,04,03,03,32,15.40
2010,04,03,03,33,15.60
2010,04,03,03,34,17.10
2010,04,03,03,35,11.00
2010,04,03,03,36,15.30
2010,04,03,03,37,15.80
2010,04,03,03,38,10.80
2010,04,03,03,39,16.30
2010,04,03,03,40,13.80
2010,04,03,03,41,14.30
2010,04,03,03,42,8.90
2010,04,03,03,43,10.90
2010,04,03,03,44,11.90
2010,04,03,03,45,16.60
2010,04,03,03,46,18.50
2010,04,03,03,47,12.00
2010,04,03,03,48,12.50
2010,04,03,03,49,15.70
2010,04,03,03,50,15.90
2010,04,03,03,51,20.40
2010,04,03,03,52,25.60
2010,04,03,03,53,19.70
2010,04,03,03,54,18.30
2010,04,03,03,55,21.80
2010,04,03,03,56,18.60
2010,04,03,03,57,24.60
2010,04,03,03,58,28.30
2010,04,03,03,59,22.00
2010,04,03,04,00,19.80
2010,04,03,04,01,15.10
2010,04,03,04,02,23.30
2010,04,03,04,03,20.80
2010,04,03,04,04,23.60
2010,04,03,04,05,12.80
2010,04,03,04,06,16.70
2010,04,03,04,07,16.70
2010,04,03,04,08,16.60
2010,04,03,04,09,8.40
2010,04,03,04,10,8.60
2010,04,03,04,11,12.80
2010,04,03,04,12,12.50
2010,04,03,04,13,9.20
2010,04,03,04,14,9.00
2010,04,03,04,15,16.50
2010,04,03,04,16,12.90
2010,04,03,04,17,9.40
2010,04,03,04,18,13.00
2010,04,03,04,19,21.80
2010,04,03,04,20,18.80
2010,04,03,04,21,20.20
2010,04,03,04,22,24.90
2010,04,03,04,23,27.00
2010,04,03,04,24,22.80
2010,04,03,04,25,24.20
2010,04,03,04,26,25.70
2010,04,03,04,27,26.40
2010,04,03,04,28,22.60
2010,04,03,04,29,23.90
2010,04,03,04,30,26.40
2010,04,03,04,31,29.10
2010,04,03,04,32,27.40
2010,04,03,04,33,29.60
2010,04,03,04,34,26.50
2010,04,03,04,35,24.70
2010,04,03,04,36,30.20
2010,04,03,04,37,27.70
2010,04,03,04,38,28.80
2010,04,03,04,39,26.40
2010,04,03,04,40,27.50
2010,04,03,04,41,24.70
2010,04,03,04,42,28.80
2010,04,03,04,43,22.60
2010,04,03,04,44,20.70
2010,04,03,04,45,20.70
2010,04,03,04,46,27.20
2010,04,03,04,47,21.20
2010,04,03,04,48,20.20
2010,04,03,04,49,16.90
2010,04,03,04,50,23.70
2010,04,03,04,51,26.50
2010,04,03,04,52,24.10
2010,04,03,04,53,27.00
2010,04,03,04,54,18.40
2010,04,03,04,55,14.90
2010,04,03,04,56,30.20
2010,04,03,04,57,20.80
2010,04,03,04,58,23.80
2010,04,03,04,59,18.30
2010,04,03,05,00,20.90
2010,04,03,05,01,19.60
2010,04,03,05,02,17.60
2010,04,03,05,03,14.80
2010,04,03,05,04,10.90
2010,04,03,05,05,9.20
2010,04,03,05,06,18.40
2010,04,03,05,07,14.40
2010,04,03,05,08,15.10
2010,04,03,05,09,14.50
2010,04,03,05,10,15.20
2010,04,03,05,11,17.30
2010,04,03,05,12,19.30
2010,04,03,05,13,12.30
2010,04,03,05,14,13.80
2010,04,03,05,15,17.50
2010,04,03,05,16,7.50
2010,04,03,05,17,10.20
2010,04,03,05,18,18.70
2010,04,03,05,19,15.80
2010,04,03,05,20,17.60
2010,04,03,05,21,14.80
2010,04,03,05,22,17.90
2010,04,03,05,23,24.60
2010,04,03,05,24,22.20
2010,04,03,05,25,21.70
2010,04,03,05,26,22.30
2010,04,03,05,27,22.10
2010,04,03,05,28,19.40
2010,04,03,05,29,21.40
2010,04,03,05,30,22.50
2010,04,03,05,31,24.40
2010,04,03,05,32,22.00
2010,04,03,05,33,21.20
2010,04,03,05,34,26.30
2010,04,03,05,35,17.50
2010,04,03,05,36,27.40
2010,04,03,05,37,26.90
2010,04,03,05,38,25.90
2010,04,03,05,39,30.50
2010,04,03,05,40,19.10
2010,04,03,05,41,17.50
2010,04,03,05,42,19.10
2010,04,03,05,43,19.00
2010,04,03,05,44,12.60
2010,04,03,05,45,18.00
2010,04,03,05,46,17.40
2010,04,03,05,47,17.70
2010,04,03,05,48,19.40
2010,04,03,05,49,28.70
2010,04,03,05,50,18.50
2010,04,03,05,51,20.60
2010,04,03,05,52,13.10
2010,04,03,05,53,13.30
2010,04,03,05,54,15.20
2010,04,03,05,55,13.20
2010,04,03,05,56,11.80
2010,04,03,05,57,13.70
2010,04,03,05,58,10.20
2010,04,03,05,59,17.40
2010,04,03,06,00,9.30
2010,04,03,06,01,15.70
2010,04,03,06,02,16.00
2010,04,03,06,03,13.90
2010,04,03,06,04,8.60
2010,04,03,06,05,12.20
2010,04,03,06,06,18.40
2010,04,03,06,07,15.00
2010,04,03,06,08,8.00
2010,04,03,06,09,15.20
2010,04,03,06,10,14.50
2010,04,03,06,11,11.10
2010,04,03,06,12,12.80
2010,04,03,06,13,11.00
2010,04,03,06,14,10.50
2010,04,03,06,15,14.30
2010,04,03,06,16,15.80
2010,04,03,06,17,11.80
2010,04,03,06,18,11.80
2010,04,03,06,19,14.70
2010,04,03,06,20,11.00
2010,04,03,06,21,13.40
2010,04,03,06,22,14.10
2010,04,03,06,23,8.50
2010,04,03,06,24,8.70
2010,04,03,06,25,6.40
2010,04,03,06,26,7.30
2010,04,03,06,27,9.90
2010,04,03,06,28,7.00
2010,04,03,06,29,17.10
2010,04,03,06,30,12.40
2010,04,03,06,31,9.80
2010,04,03,06,32,9.00
2010,04,03,06,33,14.70
2010,04,03,06,34,17.50
2010,04,03,06,35,20.20
2010,04,03,06,36,22.90
2010,04,03,06,37,22.40
2010,04,03,06,38,12.10
2010,04,03,06,39,21.80
2010,04,03,06,40,10.70
2010,04,03,06,41,15.70
2010,04,03,06,42,18.10
2010,04,03,06,43,14.70
2010,04,03,06,44,20.50
2010,04,03,06,45,18.10
2010,04,03,06,46,20.50
2010,04,03,06,47,22.40
2010,04,03,06,48,20.30
2010,04,03,06,49,21.00
2010,04,03,06,50,21.90
2010,04,03,06,51,19.60
2010,04,03,06,52,22.40
2010,04,03,06,53,17.60
2010,04,03,06,54,21.00
2010,04,03,06,55,16.50
2010,04,03,06,56,15.70
2010,04,03,06,57,22.30
2010,04,03,06,58,21.70
2010,04,03,06,59,23.40
2010,04,03,07,00,21.80
2010,04,03,07,01,15.50
2010,04,03,07,02,17.70
2010,04,03,07,03,23.20
2010,04,03,07,04,25.50
2010,04,03,07,05,20.90
2010,04,03,07,06,22.40
2010,04,03,07,07,28.70
2010,04,03,07,08,30.40
2010,04,03,07,09,27.50
2010,04,03,07,10,21.60
2010,04,03,07,11,22.40
2010,04,03,07,12,28.60
2010,04,03,07,13,29.20
2010,04,03,07,14,30.30
2010,04,03,07,15,31.20
2010,04,03,07,16,23.00
2010,04,03,07,17,25.90
2010,04,03,07,18,30.20
2010,04,03,07,19,26.10
2010,04,03,07,20,26.50
2010,04,03,07,21,24.10
2010,04,03,07,22,29.10
2010,04,03,07,23,25.10
2010,04,03,07,24,26.80
2010,04,03,07,25,29.70
2010,04,03,07,26,31.00
2010,04,03,07,27,25.30
2010,04,03,07,28,30.30
2010,04,03,07,29,27.10
2010,04,03,07,30,30.70
2010,04,03,07,31,28.20
2010,04,03,07,32,32.00
2010,04,03,07,33,42.70
2010,04,03,07,34,36.40
2010,04,03,07,35,39.20
2010,04,03,07,36,40.30
2010,04,03,07,37,37.50
2010,04,03,07,38,41.40
2010,04,03,07,39,38.60
2010,04,03,07,40,34.60
2010,04,03,07,41,33.00
2010,04,03,07,42,26.60
2010,04,03,07,43,33.10
2010,04,03,07,44,33.80
2010,04,03,07,45,32.20
2010,04,03,07,46,26.70
2010,04,03,07,47,24.90
2010,04,03,07,48,16.90
2010,04,03,07,49,22.40
2010,04,03,07,50,24.70
2010,04,03,07,51,22.80
2010,04,03,07,52,21.10
2010,04,03,07,53,23.80
2010,04,03,07,54,17.40
2010,04,03,07,55,23.80
2010,04,03,07,56,15.10
2010,04,03,07,57,15.70
2010,04,03,07,58,19.40
2010,04,03,07,59,15.30
2010,04,03,08,00,20.40
2010,04,03,08,01,19.10
2010,04,03,08,02,24.00
2010,04,03,08,03,19.20
2010,04,03,08,04,22.40
2010,04,03,08,05,20.90
2010,04,03,08,06,20.90
2010,04,03,08,07,22.00
2010,04,03,08,08,21.60
2010,04,03,08,09,19.10
2010,04,03,08,10,22.00
2010,04,03,08,11,19.20
2010,04,03,08,12,22.50
2010,04,03,08,13,13.20
2010,04,03,08,14,19.90
2010,04,03,08,15,22.40
2010,04,03,08,16,19.10
2010,04,03,08,17,18.60
2010,04,03,08,18,19.20
2010,04,03,08,19,18.40
2010,04,03,08,20,26.40
2010,04,03,08,21,14.30
2010,04,03,08,22,9.40
2010,04,03,08,23,8.10
2010,04,03,08,24,11.50
2010,04,03,08,25,7.30
2010,04,03,08,26,8.50
2010,04,03,08,27,5.80
2010,04,03,08,28,9.40
2010,04,03,08,29,7.70
2010,04,03,08,30,11.90
2010,04,03,08,31,16.30
2010,04,03,08,32,22.50
2010,04,03,08,33,16.90
2010,04,03,08,34,18.20
2010,04,03,08,35,18.60
2010,04,03,08,36,21.20
2010,04,03,08,37,18.90
2010,04,03,08,38,17.40
2010,04,03,08,39,19.90
2010,04,03,08,40,20.10
2010,04,03,08,41,18.60
2010,04,03,08,42,21.40
2010,04,03,08,43,22.50
2010,04,03,08,44,19.40
2010,04,03,08,45,21.70
2010,04,03,08,46,19.80
2010,04,03,08,47,17.70
2010,04,03,08,48,22.40
2010,04,03,08,49,27.00
2010,04,03,08,50,29.00
2010,04,03,08,51,23.50
2010,04,03,08,52,24.90
2010,04,03,08,53,21.90
2010,04,03,08,54,22.70
2010,04,03,08,55,21.60
2010,04,03,08,56,16.60
2010,04,03,08,57,22.60
2010,04,03,08,58,20.00
2010,04,03,08,59,17.80
2010,04,03,09,00,29.40
2010,04,03,09,01,18.30
2010,04,03,09,02,25.60
2010,04,03,09,03,19.90
2010,04,03,09,04,18.50
2010,04,03,09,05,17.80
2010,04,03,09,06,16.30
2010,04,03,09,07,16.90
2010,04,03,09,08,17.30
2010,04,03,09,09,19.10
2010,04,03,09,10,19.20
2010,04,03,09,11,19.00
2010,04,03,09,12,32.70
2010,04,03,09,13,14.70
2010,04,03,09,14,14.00
2010,04,03,09,15,12.10
2010,04,03,09,16,9.60
2010,04,03,09,17,13.00
2010,04,03,09,18,14.00
2010,04,03,09,19,13.10
2010,04,03,09,20,12.00
2010,04,03,09,21,13.90
2010,04,03,09,22,13.00
2010,04,03,09,23,13.00
2010,04,03,09,24,8.10
2010,04,03,09,25,9.20
2010,04,03,09,26,5.20
2010,04,03,09,27,12.00
2010,04,03,09,28,11.00
2010,04,03,09,29,5.80
2010,04,03,09,30,6.40
2010,04,03,09,31,15.60
2010,04,03,09,32,5.30
2010,04,03,09,33,6.90
2010,04,03,09,34,5.80
2010,04,03,09,35,7.50
2010,04,03,09,36,10.70
2010,04,03,09,37,13.10
2010,04,03,09,38,6.50
2010,04,03,09,39,9.20
2010,04,03,09,40,13.00
2010,04,03,09,41,7.70
2010,04,03,09,42,9.20
2010,04,03,09,43,13.90
2010,04,03,09,44,11.90
2010,04,03,09,45,8.30
2010,04,03,09,46,3.20
2010,04,03,09,47,8.00
2010,04,03,09,48,10.10
2010,04,03,09,49,6.40
2010,04,03,09,50,8.30
2010,04,03,09,51,9.50
2010,04,03,09,52,9.10
2010,04,03,09,53,9.40
2010,04,03,09,54,7.00
2010,04,03,09,55,7.50
2010,04,03,09,56,3.10
2010,04,03,09,57,8.40
2010,04,03,09,58,9.80
2010,04,03,09,59,10.70
2010,04,03,10,00,11.20
2010,04,03,10,01,9.70
2010,04,03,10,02,3.10
2010,04,03,10,03,2.70
2010,04,03,10,04,3.60
2010,04,03,10,05,9.80
2010,04,03,10,06,8.90
2010,04,03,10,07,9.90
2010,04,03,10,08,4.30
2010,04,03,10,09,3.90
2010,04,03,10,10,9.80
2010,04,03,10,11,5.90
2010,04,03,10,12,6.70
2010,04,03,10,13,2.80
2010,04,03,10,14,4.50
2010,04,03,10,15,3.60
2010,04,03,10,16,4.90
2010,04,03,10,17,0.80
2010,04,03,10,18,0.00
2010,04,03,10,19,1.30
2010,04,03,10,20,3.10
2010,04,03,10,21,0.80
2010,04,03,10,22,3.90
2010,04,03,10,23,4.50
2010,04,03,10,24,3.70
2010,04,03,10,25,6.80
2010,04,03,10,26,2.30
2010,04,03,10,27,1.60
2010,04,03,10,28,5.30
2010,04,03,10,29,9.60
2010,04,03,10,30,6.80
2010,04,03,10,31,7.80
2010,04,03,10,32,14.20
2010,04,03,10,33,7.00
2010,04,03,10,34,10.70
2010,04,03,10,35,13.90
2010,04,03,10,36,11.30
2010,04,03,10,37,12.50
2010,04,03,10,38,12.30
2010,04,03,10,39,7.30
2010,04,03,10,40,7.20
2010,04,03,10,41,3.30
2010,04,03,10,42,4.30
2010,04,03,10,43,8.30
2010,04,03,10,44,9.60
2010,04,03,10,45,11.00
2010,04,03,10,46,9.20
2010,04,03,10,47,6.30
2010,04,03,10,48,12.70
2010,04,03,10,49,11.70
2010,04,03,10,50,12.30
2010,04,03,10,51,5.60
2010,04,03,10,52,8.50
2010,04,03,10,53,6.60
2010,04,03,10,54,11.40
2010,04,03,10,55,11.20
2010,04,03,10,56,13.60
2010,04,03,10,57,6.80
2010,04,03,10,58,6.80
2010,04,03,10,59,6.40
2010,04,03,11,00,4.40
2010,04,03,11,01,4.30
2010,04,03,11,02,7.40
2010,04,03,11,03,10.40
2010,04,03,11,04,6.90
2010,04,03,11,05,3.60
2010,04,03,11,06,4.00
2010,04,03,11,07,2.20
2010,04,03,11,08,2.40
2010,04,03,11,09,4.10
2010,04,03,11,10,3.90
2010,04,03,11,11,0.80
2010,04,03,11,12,3.20
2010,04,03,11,13,2.30
2010,04,03,11,14,2.00
2010,04,03,11,15,5.80
2010,04,03,11,16,3.10
2010,04,03,11,17,3.10
2010,04,03,11,18,4.20
2010,04,03,11,19,3.80
2010,04,03,11,20,6.80
2010,04,03,11,21,7.40
2010,04,03,11,22,8.50
2010,04,03,11,23,6.50
2010,04,03,11,24,10.20
2010,04,03,11,25,13.70
2010,04,03,11,26,13.60
2010,04,03,11,27,10.70
2010,04,03,11,28,7.70
2010,04,03,11,29,6.30
2010,04,03,11,30,7.20
2010,04,03,11,31,7.60
2010,04,03,11,32,5.00
2010,04,03,11,33,5.20
2010,04,03,11,34,6.30
2010,04,03,11,35,5.80
2010,04,03,11,36,4.30
2010,04,03,11,37,5.60
2010,04,03,11,38,6.30
2010,04,03,11,39,6.40
2010,04,03,11,40,8.30
2010,04,03,11,41,7.50
2010,04,03,11,42,6.40
2010,04,03,11,43,7.80
2010,04,03,11,44,4.80
2010,04,03,11,45,6.40
2010,04,03,11,46,3.00
2010,04,03,11,47,4.50
2010,04,03,11,48,7.50
2010,04,03,11,49,9.70
2010,04,03,11,50,10.90
2010,04,03,11,51,12.10
2010,04,03,11,52,9.30
2010,04,03,11,53,10.60
2010,04,03,11,54,8.70
2010,04,03,11,55,14.00
2010,04,03,11,56,13.80
2010,04,03,11,57,7.70
2010,04,03,11,58,12.50
2010,04,03,11,59,14.10
2010,04,03,12,00,15.10
2010,04,03,12,01,9.70
2010,04,03,12,02,7.90
2010,04,03,12,03,11.70
2010,04,03,12,04,13.10
2010,04,03,12,05,8.50
2010,04,03,12,06,11.50
2010,04,03,12,07,20.40
2010,04,03,12,08,21.50
2010,04,03,12,09,19.10
2010,04,03,12,10,19.50
2010,04,03,12,11,15.70
2010,04,03,12,12,17.80
2010,04,03,12,13,23.60
2010,04,03,12,14,21.20
2010,04,03,12,15,19.90
2010,04,03,12,16,17.70
2010,04,03,12,17,16.30
2010,04,03,12,18,16.30
2010,04,03,12,19,18.70
2010,04,03,12,20,10.80
2010,04,03,12,21,16.70
2010,04,03,12,22,14.70
2010,04,03,12,23,13.90
2010,04,03,12,24,12.30
2010,04,03,12,25,12.20
2010,04,03,12,26,16.30
2010,04,03,12,27,18.70
2010,04,03,12,28,20.20
2010,04,03,12,29,15.90
2010,04,03,12,30,16.30
2010,04,03,12,31,18.30
2010,04,03,12,32,17.80
2010,04,03,12,33,18.10
2010,04,03,12,34,13.60
2010,04,03,12,35,18.10
2010,04,03,12,36,19.10
2010,04,03,12,37,19.50
2010,04,03,12,38,17.60
2010,04,03,12,39,18.30
2010,04,03,12,40,14.90
2010,04,03,12,41,15.50
2010,04,03,12,42,18.30
2010,04,03,12,43,21.40
2010,04,03,12,44,19.80
2010,04,03,12,45,15.60
2010,04,03,12,46,22.90
2010,04,03,12,47,20.00
2010,04,03,12,48,18.50
2010,04,03,12,49,14.10
2010,04,03,12,50,15.00
2010,04,03,12,51,16.30
2010,04,03,12,52,15.40
2010,04,03,12,53,21.10
2010,04,03,12,54,17.20
2010,04,03,12,55,18.30
2010,04,03,12,56,11.90
2010,04,03,12,57,15.60
2010,04,03,12,58,9.80
2010,04,03,12,59,14.10
2010,04,03,13,00,19.40
2010,04,03,13,01,20.20
2010,04,03,13,02,15.20
2010,04,03,13,03,11.50
2010,04,03,13,04,12.50
2010,04,03,13,05,15.00
2010,04,03,13,06,17.90
2010,04,03,13,07,16.90
2010,04,03,13,08,16.00
2010,04,03,13,09,15.00
2010,04,03,13,10,17.40
2010,04,03,13,11,15.40
2010,04,03,13,12,18.30
2010,04,03,13,13,10.50
2010,04,03,13,14,17.40
2010,04,03,13,15,17.60
2010,04,03,13,16,16.70
2010,04,03,13,17,18.60
2010,04,03,13,18,16.90
2010,04,03,13,19,22.00
2010,04,03,13,20,19.00
2010,04,03,13,21,20.90
2010,04,03,13,22,16.90
2010,04,03,13,23,14.60
2010,04,03,13,24,17.80
2010,04,03,13,25,17.10
2010,04,03,13,26,16.20
2010,04,03,13,27,17.60
2010,04,03,13,28,17.80
2010,04,03,13,29,14.60
2010,04,03,13,30,20.30
2010,04,03,13,31,17.00
2010,04,03,13,32,11.90
2010,04,03,13,33,16.00
2010,04,03,13,34,15.10
2010,04,03,13,35,17.40
2010,04,03,13,36,18.60
2010,04,03,13,37,18.00
2010,04,03,13,38,16.90
2010,04,03,13,39,17.60
2010,04,03,13,40,17.50
2010,04,03,13,41,16.00
2010,04,03,13,42,19.90
2010,04,03,13,43,16.90
2010,04,03,13,44,16.30
2010,04,03,13,45,9.40
2010,04,03,13,46,17.00
2010,04,03,13,47,12.80
2010,04,03,13,48,7.30
2010,04,03,13,49,13.60
2010,04,03,13,50,16.40
2010,04,03,13,51,16.40
2010,04,03,13,52,9.50
2010,04,03,13,53,9.60
2010,04,03,13,54,7.50
2010,04,03,13,55,6.10
2010,04,03,13,56,2.50
2010,04,03,13,57,4.20
2010,04,03,13,58,4.30
2010,04,03,13,59,10.10
2010,04,03,14,00,9.10
2010,04,03,14,01,7.40
2010,04,03,14,02,5.30
2010,04,03,14,03,5.70
2010,04,03,14,04,2.10
2010,04,03,14,05,7.10
2010,04,03,14,06,3.90
2010,04,03,14,07,7.50
2010,04,03,14,08,7.60
2010,04,03,14,09,7.50
2010,04,03,14,10,5.50
2010,04,03,14,11,6.60
2010,04,03,14,12,14.10
2010,04,03,14,13,10.50
2010,04,03,14,14,7.50
2010,04,03,14,15,5.50
2010,04,03,14,16,7.60
2010,04,03,14,17,4.50
2010,04,03,14,18,4.20
2010,04,03,14,19,4.50
2010,04,03,14,20,5.30
2010,04,03,14,21,6.60
2010,04,03,14,22,13.50
2010,04,03,14,23,12.20
2010,04,03,14,24,9.60
2010,04,03,14,25,8.20
2010,04,03,14,26,6.40
2010,04,03,14,27,5.30
2010,04,03,14,28,4.70
2010,04,03,14,29,1.20
2010,04,03,14,30,5.70
2010,04,03,14,31,5.70
2010,04,03,14,32,5.10
2010,04,03,14,33,6.10
2010,04,03,14,34,6.80
2010,04,03,14,35,4.70
2010,04,03,14,36,5.40
2010,04,03,14,37,7.10
2010,04,03,14,38,5.30
2010,04,03,14,39,4.00
2010,04,03,14,40,6.70
2010,04,03,14,41,3.20
2010,04,03,14,42,5.30
2010,04,03,14,43,8.10
2010,04,03,14,44,13.40
2010,04,03,14,45,8.80
2010,04,03,14,46,11.90
2010,04,03,14,47,4.50
2010,04,03,14,48,0.50
2010,04,03,14,49,3.10
2010,04,03,14,50,3.80
2010,04,03,14,51,4.90
2010,04,03,14,52,4.70
2010,04,03,14,53,8.80
2010,04,03,14,54,10.60
2010,04,03,14,55,9.20
2010,04,03,14,56,8.60
2010,04,03,14,57,8.70
2010,04,03,14,58,5.60
2010,04,03,14,59,11.60
2010,04,03,15,00,13.40
2010,04,03,15,01,9.10
2010,04,03,15,02,4.90
2010,04,03,15,03,9.70
2010,04,03,15,04,10.50
2010,04,03,15,05,13.80
2010,04,03,15,06,20.20
2010,04,03,15,07,21.00
2010,04,03,15,08,18.70
2010,04,03,15,09,16.30
2010,04,03,15,10,13.90
2010,04,03,15,11,1.60
2010,04,03,15,12,2.10
2010,04,03,15,13,5.50
2010,04,03,15,14,11.10
2010,04,03,15,15,9.50
2010,04,03,15,16,12.60
2010,04,03,15,17,10.80
2010,04,03,15,18,10.30
2010,04,03,15,19,13.90
2010,04,03,15,20,14.60
2010,04,03,15,21,14.80
2010,04,03,15,22,10.10
2010,04,03,15,23,14.10
2010,04,03,15,24,13.00
2010,04,03,15,25,9.00
2010,04,03,15,26,8.90
2010,04,03,15,27,9.50
2010,04,03,15,28,9.20
2010,04,03,15,29,14.10
2010,04,03,15,30,11.70
2010,04,03,15,31,14.20
2010,04,03,15,32,10.80
2010,04,03,15,33,9.30
2010,04,03,15,34,9.50
2010,04,03,15,35,5.50
2010,04,03,15,36,9.20
2010,04,03,15,37,10.20
2010,04,03,15,38,6.70
2010,04,03,15,39,8.90
2010,04,03,15,40,1.60
2010,04,03,15,41,0.20
2010,04,03,15,42,3.10
2010,04,03,15,43,5.30
2010,04,03,15,44,3.50
2010,04,03,15,45,2.60
2010,04,03,15,46,6.40
2010,04,03,15,47,4.40
2010,04,03,15,48,7.10
2010,04,03,15,49,4.80
2010,04,03,15,50,3.90
2010,04,03,15,51,2.60
2010,04,03,15,52,5.00
2010,04,03,15,53,4.80
2010,04,03,15,54,3.90
2010,04,03,15,55,6.10
2010,04,03,15,56,4.00
2010,04,03,15,57,2.30
2010,04,03,15,58,1.70
2010,04,03,15,59,6.10
2010,04,03,16,00,3.60
2010,04,03,16,01,1.50
2010,04,03,16,02,3.80
2010,04,03,16,03,0.10
2010,04,03,16,04,0.10
2010,04,03,16,05,1.70
2010,04,03,16,06,0.20
2010,04,03,16,07,0.60
2010,04,03,16,08,1.60
2010,04,03,16,09,0.50
2010,04,03,16,10,0.90
2010,04,03,16,11,0.50
2010,04,03,16,12,2.50
2010,04,03,16,13,1.10
2010,04,03,16,14,0.20
2010,04,03,16,15,0.10
2010,04,03,16,16,2.70
2010,04,03,16,17,2.50
2010,04,03,16,18,3.50
2010,04,03,16,19,1.40
2010,04,03,16,20,2.20
2010,04,03,16,21,0.20
2010,04,03,16,22,3.10
2010,04,03,16,23,1.00
2010,04,03,16,24,0.20
2010,04,03,16,25,0.60
2010,04,03,16,26,5.50
2010,04,03,16,27,4.00
2010,04,03,16,28,3.50
2010,04,03,16,29,4.30
2010,04,03,16,30,0.30
2010,04,03,16,31,1.30
2010,04,03,16,32,2.90
2010,04,03,16,33,2.10
2010,04,03,16,34,3.60
2010,04,03,16,35,4.30
2010,04,03,16,36,1.40
2010,04,03,16,37,2.70
2010,04,03,16,38,1.30
2010,04,03,16,39,0.80
2010,04,03,16,40,5.90
2010,04,03,16,41,1.60
2010,04,03,16,42,2.90
2010,04,03,16,43,1.60
2010,04,03,16,44,1.90
2010,04,03,16,45,0.20
2010,04,03,16,46,0.30
2010,04,03,16,47,2.40
2010,04,03,16,48,3.00
2010,04,03,16,49,2.20
2010,04,03,16,50,2.70
2010,04,03,16,51,0.90
2010,04,03,16,52,1.80
2010,04,03,16,53,0.60
2010,04,03,16,54,0.30
2010,04,03,16,55,0.70
2010,04,03,16,56,1.10
2010,04,03,16,57,0.10
2010,04,03,16,58,2.80
2010,04,03,16,59,2.80
2010,04,03,17,00,1.50
2010,04,03,17,01,0.60
2010,04,03,17,02,0.00
2010,04,03,17,03,2.60
2010,04,03,17,04,4.70
2010,04,03,17,05,2.30
2010,04,03,17,06,0.70
2010,04,03,17,07,3.10
2010,04,03,17,08,3.00
2010,04,03,17,09,0.10
2010,04,03,17,10,1.60
2010,04,03,17,11,0.20
2010,04,03,17,12,4.00
2010,04,03,17,13,0.20
2010,04,03,17,14,0.90
2010,04,03,17,15,0.40
2010,04,03,17,16,0.40
2010,04,03,17,17,0.40
2010,04,03,17,18,0.10
2010,04,03,17,19,1.00
2010,04,03,17,20,0.80
2010,04,03,17,21,1.60
2010,04,03,17,22,0.50
2010,04,03,17,23,2.00
2010,04,03,17,24,2.00
2010,04,03,17,25,0.00
2010,04,03,17,26,0.00
2010,04,03,17,27,0.10
2010,04,03,17,28,4.10
2010,04,03,17,29,3.00
2010,04,03,17,30,5.10
2010,04,03,17,31,4.80
2010,04,03,17,32,2.20
2010,04,03,17,33,1.70
2010,04,03,17,34,2.50